User: anonymous   Login
Location: Fontevrault
(47.1823°N, 0.0493°E)
Time: 21:32:54
(UTC+00:00)
Language:

FENGYUN 1C DEB - Orbit

View from above orbital plane
View from above orbital plane
View from above satellite
View from above satellite

Ground track
Ground track

The orbit data is extracted from the following two-line orbital elements,

1 30813U 99025AUX 22022.44384520  .00010933  00000-0  13358-2 0  9996
2 30813  98.9092 108.3900 0049945 277.3537  82.1998 14.82593147791840
Epoch (UTC): 22 January 2022 10:39:08
Eccentricity: 0.0049945
inclination: 98.9092°
perigee height: 586 km
apogee height: 656 km
right ascension of ascending node: 108.3900°
argument of perigee: 277.3537°
revolutions per day: 14.82593147
mean anomaly at epoch: 82.1998°
orbit number at epoch: 79184

The dashed part of the orbit path shows where the satellite is in the earth's shadow,  

DLR